Location: Aufkirchen
(47.9603°N, 11.3653°E)
Time: 12:55:14
(UTC+01:00)

ISS - Visible Passes

Search period start: 03 December 2022 00:00
Search period end: 13 December 2022 00:00
Orbit: 414 x 420 km, 51.6° (Epoch: 03 December)

Date Brightness Start Highest point End Pass type
(mag) Time Alt. Az. Time Alt. Az. Time Alt. Az.
03 Dec -3.8 17:52:09 10° WNW 17:55:31 83° SSW 17:57:24 24° ESE visible
03 Dec -0.5 19:29:38 10° W 19:30:21 13° WSW 19:30:21 13° WSW visible
04 Dec -3.8 17:04:02 10° WNW 17:07:23 73° NNE 17:10:43 10° ESE visible
04 Dec -1.8 18:41:06 10° W 18:43:55 25° SW 18:44:45 23° SSW visible
05 Dec -2.4 17:52:45 10° WNW 17:55:54 39° SW 17:59:01 10° SE visible
06 Dec -3.1 17:04:30 10° WNW 17:07:48 59° SSW 17:11:05 10° SE visible
06 Dec -0.5 18:42:56 10° WSW 18:43:58 11° SW 18:45:01 10° SSW visible
07 Dec -0.8 17:53:42 10° W 17:56:00 17° SW 17:58:18 10° S visible
08 Dec -1.4 17:05:06 10° W 17:07:58 27° SW 17:10:49 10° SSE visible
10 Dec -0.2 17:06:35 10° WSW 17:07:51 12° SW 17:09:07 10° SSW visible
